Regional Weather Roundup
Issued by NWS

Home | Current Version | Previous Version | Graphics & Text | Print | Product List | Glossary On
Versions: 1 2 3 4 5 6 7 8 9 10 11 12 13 14 15 16 17 18 19 20 21 22 23 24 25 26 27 28 29 30 31 32 33 34 35 36 37 38 39 40 41 42 43 44 45 46 47 48 49 50
000
ASUS45 KSLC 050210
RWRUT
UTAH REGIONAL WEATHER ROUNDUP
NATIONAL WEATHER SERVICE SALT LAKE CITY UT
800 PM MDT TUE AUG 04 2015

UTZ001>011-023>025-050300-

NORTHERN UTAH

CITY           SKY/WX    TMP DP  RH WIND       PRES   REMARKS
BRIGHAM CITY     N/A     84  51  31 CALM      29.99F
HILL AFB       CLEAR     84  53  33 E3        30.02F
LOGAN          CLEAR     77  54  44 N12       30.02S
OGDEN            N/A     86  47  25 E6        29.99F
PROVO AIRPORT  PTCLDY    82  57  42 VRB5      30.00F
SALT LAKE CITY MOCLDY    89  46  22 CALM      29.96F
VERNAL         PTCLDY    81  44  27 N7        30.10R
WENDOVER         N/A     90  39  17 NE5       29.94S
HEBER CITY       N/A     79  46  31 CALM      30.09F
WEST JORDAN    CLEAR     84  52  32 W8        30.01S

$$

UTZ012>022-026-027-050300-

SOUTHERN/CENTRAL UTAH

CITY           SKY/WX    TMP DP  RH WIND       PRES   REMARKS
BLANDING         N/A     80  45  28 E3        30.22S
BRYCE CANYON     N/A     73  31  21 SW8       30.29S
CEDAR CITY       N/A     83  28  13 SW13      30.11R
DELTA            N/A     88  35  15 CALM      29.98S
HANKSVILLE       N/A     90  36  14 S10       30.01R
MILFORD          N/A     89  28  11 SW17      30.02S
MOAB/CYNLANDS  CLEAR     89  49  25 E5        30.01R
PRICE            N/A     84  41  21 SE7       30.13S
ST GEORGE        N/A     99  34  10 SW12      29.90S HX  93
KANAB            N/A     86  34  15 W8        30.12R

$$

REGIONAL REPORTS     COLORADO/ARIZONA

CITY           SKY/WX    TMP DP  RH WIND       PRES   REMARKS
CRAIG, CO      NOT AVBL
GRAND JUNCTION CLEAR     86  38  18 W6        30.05R
RIFLE          PTCLDY    83  44  25 SW5       30.11S
MONTROSE       PTCLDY    83  44  25 NE5       30.16R
CORTEZ         CLEAR     79  42  26 N6        30.17R
PAGE, AZ         N/A     94  35  12 N5        29.99S
GRAND CANYON     N/A     82  27  13 W7        30.24R
KINGMAN          N/A     95  29   9 SW14      29.98R
FLAGSTAFF        N/A     77  28  16 W8        30.29R

$$

REGIONAL REPORTS    NEVADA/IDAHO/WYOMING

CITY           SKY/WX    TMP DP  RH WIND       PRES   REMARKS
LAS VEGAS, NV    N/A    103  30   8 SW13G18   29.79S HX  96
ELY              N/A     83  24  11 S12       30.10S
ELKO             N/A     88  28  11 W9        29.95S
POCATELLO, ID  MOCLDY    76  41  28 S37G48    30.03F
BURLEY           N/A     72  51  47 SE18      29.97F
EVANSTON, WY   CLEAR     75  34  22 W9        30.24R
ROCK SPRINGS   CLEAR     75  39  27 NW10      30.20R
KEMMERER       CLEAR     72  32  23 W7        30.25S

$$



USA.gov is the U.S. government's official web portal to all federal, state and local government web resources and services.